Regional Weather Roundup
Issued by NWS

Home | Current Version | Previous Version | Text Only | Print | Product List | Glossary Off
Versions: 1 2 3 4 5 6 7 8 9 10 11 12 13 14 15 16 17 18 19 20 21 22 23 24 25 26 27 28 29 30 31 32 33 34 35 36 37 38 39 40 41 42 43 44 45 46 47 48 49 50

000
ASUS43 KDMX 271907
RWRIA

WEATHER ROUNDUP FOR IOWA
NATIONAL WEATHER SERVICE DES MOINES IA
200 PM CDT WED AUG 27 2014

NOTE: "FAIR" INDICATES FEW OR NO CLOUDS BELOW 12,000 FEET WITH NO
SIGNIFICANT WEATHER AND/OR OBSTRUCTIONS TO VISIBILITY.

* - THESE STATIONS ARE NOT NWS STATIONS...THUS NOT UNDER NWS
QUALITY CONTROL.  THEY ALSO DO NOT REPORT WEATHER SUCH
AS PRECIPITATION OR FOG.

IAZ001>003-012>014-020>022-031>034-043>046-272000-
   NORTHWEST IOWA

CITY           SKY/WX    TMP DP  RH WIND       PRES   REMARKS
CARROLL *      CLOUDY    68  66  94 E9        30.15F
CHEROKEE *     CLOUDY    72  64  78 E6        30.15F
DENISON *      CLOUDY    68  68 100 E7        30.15R
LE MARS *      SUNNY     72  64  78 VRB8G14   30.13F
ORANGE CITY *  SUNNY     72  61  68 SE9       30.15F
SHELDON *      SUNNY     70  63  78 SE10      30.15F
SIOUX CITY     LGT RAIN  69  67  93 SE9       30.13S
SPENCER        CLOUDY    71  61  70 SE9       30.17F
STORM LAKE *   MOSUNNY   70  66  88 E9        30.16F
$$

IAZ055>058-069>071-079>083-090>094-272000-
   SOUTHWEST IOWA

CITY           SKY/WX    TMP DP  RH WIND       PRES   REMARKS
ATLANTIC *     CLOUDY    70  70 100 S10       30.13F
AUDUBON *      LGT RAIN  72  70  94 SE6       30.15F
CLARINDA *     SUNNY     72  70  94 NE6       30.13F
COUNCIL BLFS * LGT RAIN  68  68 100 S9        30.14S
CRESTON *      CLOUDY    72  70  94 NE8       30.15F
HARLAN  *      PTSUNNY   70  70 100 S12G17    30.17F
LAMONI         CLOUDY    75  69  81 N10       30.14F
RED OAK *      CLOUDY    70  70 100 N6        30.14F
SHENANDOAH *   MOSUNNY   72  70  94 CALM      30.12F
$$

IAZ047>049-059>061-072>074-084-272000-
   CENTRAL IOWA

CITY           SKY/WX    TMP DP  RH WIND       PRES   REMARKS
AMES           CLOUDY    74  65  73 SE5       30.17F
ANKENY *       CLOUDY    73  66  78 E3        30.16F
CHARITON *     CLOUDY    73  70  88 W5        30.16F
DES MOINES     CLOUDY    74  66  76 SE3       30.16F
GRINNELL*      CLOUDY    72  64  78 E5        30.18S
KNOXVILLE *    MOSUNNY   73  66  78 CALM      30.16S
MARSHALLTOWN   CLOUDY    73  62  68 VRB3      30.16F
PELLA *        CLOUDY    75  66  73 CALM      30.18F
PERRY *        LGT RAIN  70  68  94 NE5       30.17F
$$

IAZ004>006-015-016-023>025-035-036-272000-
   NORTH CENTRAL IOWA

CITY           SKY/WX    TMP DP  RH WIND       PRES   REMARKS
ALGONA *       SUNNY     73  61  64 VRB6      30.18F
CLARION *      SUNNY     73  63  68 SE5       30.18F
ESTHERVILLE    CLOUDY    70  60  70 E7        30.19F
FORT DODGE *   CLOUDY    72  63  73 SE8       30.18F
MASON CITY     CLOUDY    73  59  61 E8        30.20F
FOREST CITY *  SUNNY     72  59  64 CALM      30.19F
IOWA FALLS *   CLOUDY    72  63  73 SE3       30.19F
$$

IAZ007>011-017>019-026>030-037>042-050>054-066-272000-
   NORTHEAST IOWA

CITY           SKY/WX    TMP DP  RH WIND       PRES   REMARKS
CEDAR RAPIDS   CLOUDY    74  64  71 S3        30.17F
CHARLES CITY * MOSUNNY   73  57  56 VRB3      30.20F
CLINTON *      CLOUDY    75  63  64 NW3       30.20S
DUBUQUE        CLOUDY    75  53  46 CALM      30.20S
MONTICELLO *   SUNNY     75  59  57 CALM      30.18S
OELWEIN *      SUNNY     73  57  56 CALM      30.19F
WATERLOO       CLOUDY    75  58  55 E7        30.17F
$$

IAZ064-065-067-068-078-272000-
   EAST CENTRAL IOWA

CITY           SKY/WX    TMP DP  RH WIND       PRES   REMARKS
DAVENPORT      CLOUDY    76  64  66 N3        30.18S
IOWA CITY      CLOUDY    75  65  70 CALM      30.18F
MT. PLEASANT * LGT RAIN  73  70  88 NE3       30.15S
MUSCATINE *    CLOUDY    77  66  69 N5        30.16F
QUAD CITIES    CLOUDY    79  63  57 N3        30.16S HX  80
$$

IAZ062-063-075>077-085>089-095>099-272000-
   SOUTHEAST IOWA

CITY           SKY/WX    TMP DP  RH WIND       PRES   REMARKS
BURLINGTON     LGT RAIN  76  69  79 NE6       30.15S
FAIRFIELD *    SUNNY     72  68  88 NE8       30.15F
FORT MADISON * SUNNY     77  72  83 N3        30.16F
KEOKUK *       SUNNY     77  70  78 CALM      30.14F
OSKALOOSA *      N/A     73  68  83 E5        30.17F
CENTERVILLE *  MOSUNNY   73  72  94 CALM      30.17F
OTTUMWA        CLOUDY    73  67  81 E3        30.15F
WASHINGTON *   MOSUNNY   75  70  83 NE6       30.16F
$$

ABBREVIATIONS USED IN REMARKS
   TC - TEMPERATURES IN CELSIUS
  WCI - WIND CHILL INDEX
   HX - HEAT INDEX
  VSB - VISIBILITY
$$



USA.gov is the U.S. government's official web portal to all federal, state and local government web resources and services.